Time,TemperatureF,DewpointF,PressureIn,WindDirection,WindDirectionDegrees,WindSpeedMPH,WindSpeedGustMPH,Humidity,HourlyPrecipIn,Conditions,Clouds,dailyrainin,SolarRadiationWatts/m^2,SoftwareType,DateUTC
2013-08-18 09:23:00,67.0,21.0,-100.00,East,96,4.0,9.0,17,-99.99,,,0.00,86.000000,,2013-08-18 16:23:00,
2013-08-18 09:33:00,67.0,21.0,-100.00,East,96,4.0,9.0,17,-99.99,,,0.00,86.000000,,2013-08-18 16:33:00,
2013-08-18 09:51:00,79.0,27.0,-100.00,NW,322,6.0,14.0,15,-99.99,,,-99.99,596.000000,,2013-08-18 16:51:00,
2013-08-18 10:23:00,79.0,27.0,-100.00,NW,322,6.0,14.0,15,-99.99,,,-99.99,596.000000,,2013-08-18 17:23:00,
2013-08-18 10:33:00,79.0,27.0,-100.00,NW,322,6.0,14.0,15,-99.99,,,-99.99,596.000000,,2013-08-18 17:33:00,
2013-08-18 10:42:00,79.0,27.0,-100.00,NW,322,6.0,14.0,15,-99.99,,,-99.99,596.000000,,2013-08-18 17:42:00,
2013-08-18 10:51:00,81.0,32.0,-100.00,SE,143,7.0,15.0,17,0.00,,,0.00,902.000000,,2013-08-18 17:51:00,
2013-08-18 11:21:00,81.0,32.0,-100.00,SE,143,7.0,15.0,17,0.00,,,0.00,902.000000,,2013-08-18 18:21:00,
2013-08-18 11:32:00,81.0,32.0,-100.00,SE,143,7.0,15.0,17,0.00,,,0.00,902.000000,,2013-08-18 18:32:00,
2013-08-18 11:42:00,81.0,32.0,-100.00,SE,143,7.0,15.0,17,0.00,,,0.00,902.000000,,2013-08-18 18:42:00,
2013-08-18 11:51:00,83.0,35.0,-100.00,SE,141,7.0,19.0,18,0.00,,,0.00,1161.000000,,2013-08-18 18:51:00,
2013-08-18 12:22:00,83.0,35.0,-100.00,SE,141,7.0,19.0,18,0.00,,,0.00,1161.000000,,2013-08-18 19:22:00,
2013-08-18 12:31:00,83.0,35.0,-100.00,SE,141,7.0,19.0,18,0.00,,,0.00,1161.000000,,2013-08-18 19:31:00,
2013-08-18 12:41:00,83.0,35.0,-100.00,SE,141,7.0,19.0,18,0.00,,,0.00,1161.000000,,2013-08-18 19:41:00,
2013-08-18 12:51:00,85.0,38.0,-100.00,ESE,120,5.0,19.0,19,0.00,,,0.00,1227.000000,,2013-08-18 19:51:00,
2013-08-18 13:22:00,85.0,38.0,-100.00,ESE,120,5.0,19.0,19,0.00,,,0.00,1227.000000,,2013-08-18 20:22:00,
2013-08-18 13:32:00,85.0,38.0,-100.00,ESE,120,5.0,19.0,19,0.00,,,0.00,1227.000000,,2013-08-18 20:32:00,
2013-08-18 13:42:00,85.0,38.0,-100.00,ESE,120,5.0,19.0,19,0.00,,,0.00,1227.000000,,2013-08-18 20:42:00,
2013-08-18 13:51:00,84.0,39.0,-100.00,West,277,5.0,19.0,20,0.00,,,0.00,1163.000000,,2013-08-18 20:51:00,
2013-08-18 14:21:00,84.0,39.0,-100.00,West,277,5.0,19.0,20,0.00,,,0.00,1163.000000,,2013-08-18 21:21:00,
2013-08-18 14:32:00,84.0,39.0,-100.00,West,277,5.0,19.0,20,0.00,,,0.00,1163.000000,,2013-08-18 21:32:00,
2013-08-18 14:42:00,84.0,39.0,-100.00,West,277,5.0,19.0,20,0.00,,,0.00,1163.000000,,2013-08-18 21:42:00,
2013-08-18 14:51:00,87.0,42.0,-100.00,NE,36,6.0,20.0,21,0.00,,,0.00,1080.000000,,2013-08-18 21:51:00,
2013-08-18 15:23:00,87.0,42.0,-100.00,NE,36,6.0,20.0,21,0.00,,,0.00,1080.000000,,2013-08-18 22:23:00,
2013-08-18 15:34:00,87.0,42.0,-100.00,NE,36,6.0,20.0,21,0.00,,,0.00,1080.000000,,2013-08-18 22:34:00,
2013-08-18 15:42:00,87.0,42.0,-100.00,NE,36,6.0,20.0,21,0.00,,,0.00,1080.000000,,2013-08-18 22:42:00,
2013-08-18 15:51:00,86.0,41.0,-100.00,SE,140,4.0,20.0,21,0.00,,,0.00,1098.000000,,2013-08-18 22:51:00,
2013-08-18 16:22:00,86.0,41.0,-100.00,SE,140,4.0,20.0,21,0.00,,,0.00,1098.000000,,2013-08-18 23:22:00,
2013-08-18 16:33:00,86.0,41.0,-100.00,SE,140,4.0,20.0,21,0.00,,,0.00,1098.000000,,2013-08-18 23:33:00,
2013-08-18 16:42:00,86.0,41.0,-100.00,SE,140,4.0,20.0,21,0.00,,,0.00,1098.000000,,2013-08-18 23:42:00,
2013-08-18 16:51:00,81.0,43.0,-100.00,SE,141,6.0,19.0,26,0.00,,,0.00,532.000000,,2013-08-18 23:51:00,
2013-08-18 17:21:00,81.0,43.0,-100.00,SE,141,6.0,19.0,26,0.00,,,0.00,532.000000,,2013-08-19 00:21:00,
2013-08-18 17:32:00,81.0,43.0,-100.00,SE,141,6.0,19.0,26,0.00,,,0.00,532.000000,,2013-08-19 00:32:00,
2013-08-18 17:42:00,81.0,43.0,-100.00,SE,141,6.0,19.0,26,0.00,,,0.00,532.000000,,2013-08-19 00:42:00,
2013-08-18 17:51:00,77.0,46.0,-100.00,ESE,119,9.0,20.0,34,0.00,,,0.00,432.000000,,2013-08-19 00:51:00,
2013-08-18 18:22:00,77.0,46.0,-100.00,ESE,119,9.0,20.0,34,0.00,,,0.00,432.000000,,2013-08-19 01:22:00,
2013-08-18 18:31:00,77.0,46.0,-100.00,ESE,119,9.0,20.0,34,0.00,,,0.00,432.000000,,2013-08-19 01:31:00,
2013-08-18 18:41:00,77.0,46.0,-100.00,ESE,119,9.0,20.0,34,0.00,,,0.00,432.000000,,2013-08-19 01:41:00,
2013-08-18 18:51:00,75.0,37.0,-100.00,North,350,6.0,19.0,25,0.00,,,-99.99,335.000000,,2013-08-19 01:51:00,
2013-08-18 19:21:00,75.0,37.0,-100.00,North,350,6.0,19.0,25,0.00,,,-99.99,335.000000,,2013-08-19 02:21:00,
2013-08-18 19:32:00,75.0,37.0,-100.00,North,350,6.0,19.0,25,0.00,,,-99.99,335.000000,,2013-08-19 02:32:00,
2013-08-18 19:42:00,75.0,37.0,-100.00,North,350,6.0,19.0,25,0.00,,,-99.99,335.000000,,2013-08-19 02:42:00,
2013-08-18 19:51:00,71.0,35.0,-100.00,SE,142,2.0,15.0,27,0.00,,,0.00,97.000000,,2013-08-19 02:51:00,
2013-08-18 20:21:00,71.0,35.0,-100.00,SE,142,2.0,15.0,27,0.00,,,0.00,97.000000,,2013-08-19 03:21:00,
2013-08-18 20:33:00,71.0,35.0,-100.00,SE,142,2.0,15.0,27,0.00,,,0.00,97.000000,,2013-08-19 03:33:00,
2013-08-18 20:42:00,71.0,35.0,-100.00,SE,142,2.0,15.0,27,0.00,,,0.00,97.000000,,2013-08-19 03:42:00,
2013-08-18 20:51:00,64.0,34.0,-100.00,ESE,108,1.0,8.0,32,0.00,,,0.00,17.000000,,2013-08-19 03:51:00,
2013-08-18 21:23:00,64.0,34.0,-100.00,ESE,108,1.0,8.0,32,0.00,,,0.00,17.000000,,2013-08-19 04:23:00,
2013-08-18 21:33:00,64.0,34.0,-100.00,ESE,108,1.0,8.0,32,0.00,,,0.00,17.000000,,2013-08-19 04:33:00,
2013-08-18 21:42:00,64.0,34.0,-100.00,ESE,108,1.0,8.0,32,0.00,,,0.00,17.000000,,2013-08-19 04:42:00,
2013-08-18 21:51:00,65.0,41.0,-100.00,SE,125,3.0,14.0,42,0.00,,,0.00,0.000000,,2013-08-19 04:51:00,
2013-08-18 22:22:00,65.0,41.0,-100.00,SE,125,3.0,14.0,42,0.00,,,0.00,0.000000,,2013-08-19 05:22:00,
2013-08-18 22:33:00,65.0,41.0,-100.00,SE,125,3.0,14.0,42,0.00,,,0.00,0.000000,,2013-08-19 05:33:00,
2013-08-18 22:42:00,65.0,41.0,-100.00,SE,125,3.0,14.0,42,0.00,,,0.00,0.000000,,2013-08-19 05:42:00,
2013-08-18 22:51:00,62.0,43.0,-100.00,SE,129,2.0,11.0,49,0.00,,,0.00,0.000000,,2013-08-19 05:51:00,
2013-08-18 23:21:00,62.0,43.0,-100.00,SE,129,2.0,11.0,49,0.00,,,0.00,0.000000,,2013-08-19 06:21:00,
2013-08-18 23:32:00,62.0,43.0,-100.00,SE,129,2.0,11.0,49,0.00,,,0.00,0.000000,,2013-08-19 06:32:00,
2013-08-18 23:42:00,62.0,43.0,-100.00,SE,129,2.0,11.0,49,0.00,,,0.00,0.000000,,2013-08-19 06:42:00,
2013-08-18 23:51:00,66.0,42.0,-100.00,SSW,212,2.0,17.0,41,0.00,,,0.00,0.000000,,2013-08-19 06:51:00,